Retour au catalogue

ONEWEB-0288

ActifCommunicationsPO
NORAD 49078·PAYLOAD·🇬🇧 United Kingdom

Lancé Aug 21, 2021 depuis Baikonur Cosmodrome

Loading…

Prochains Passages (prochaines 24 heures)

TLE

FraisSource: CelesTrak SupGP

Époque: Sep 15, 2026, 05:10 UTC

1 49078C 21075D   26258.21545556  .00000434  00000+0  12085-2 0  2585
2 49078  87.8982 332.7845 0001813 107.3805 291.1145 13.12441084    13

Suivez ONEWEB-0288 en temps réel avec AllMySat

Download on the App Store